Location: Cartignies
(50.0929°N, 3.8447°E)
Time: 14:47:27
(UTC+00:00)

NOSS 3-1 (C) - Pass Details

Date: 12 January 2026
Orbit: 618 x 1583 km, 63.4° (Epoch: 10 January)

Event Time Altitude Azimuth Distance (km) Brightness Sun altitude
Rises 19:55:56 0° 316° (NW) 3,657 7.2 -35.9°
Reaches altitude 10° 19:58:16 10° 317° (NW) 2,832 6.4 -36.3°
Enters shadow 20:03:04 52° 325° (NW) 1,418 4.4 -37.0°
